• In Hungary
  • List of Countries
  • For 7 days
  • Water Temperature
  • Satellite Maps
  • Weather Map
  • News
  • Weather Widgets
  • user-avatar
    Login

    Hourly Weather Charlotte

    Today, 22 June, Friday

    Time Temperature Precipitation Wind Pressure Humidity
    00:00 +26°C° 0 mm 2 mps 738 mmHg 84%
    01:00 +26°C° 0 mm 2 mps 738 mmHg 85%
    02:00 +25°C° 0 mm 2 mps 738 mmHg 87%
    03:00 +25°C° 0 mm 2 mps 738 mmHg 89%
    04:00 +24°C° 0 mm 2 mps 738 mmHg 91%
    05:00 +25°C° 0 mm 2 mps 738 mmHg 89%
    06:00 +25°C° 0 mm 2 mps 738 mmHg 87%
    07:00 +26°C° 0 mm 2 mps 738 mmHg 85%
    08:00 +27°C° 0 mm 2 mps 739 mmHg 76%
    09:00 +29°C° 0 mm 2 mps 739 mmHg 67%
    10:00 +31°C° 0 mm 2 mps 739 mmHg 58%
    11:00 +34°C° 0 mm 3 mps 739 mmHg 52%
    12:00 +35°C° 0 mm 4 mps 738 mmHg 46%
    13:00 +36°C° 0 mm 5 mps 738 mmHg 40%
    14:00 +36°C° 0 mm 5 mps 738 mmHg 40%
    15:00 +36°C° 0 mm 5 mps 737 mmHg 40%
    16:00 +36°C° 0 mm 6 mps 737 mmHg 40%
    17:00 +35°C° 0 mm 5 mps 737 mmHg 45%
    18:00 +33°C° 0 mm 4 mps 737 mmHg 50%
    19:00 +32°C° 0 mm 4 mps 737 mmHg 55%
    20:00 +30°C° 0 mm 3 mps 738 mmHg 58%
    21:00 +29°C° 0 mm 2 mps 738 mmHg 60%
    22:00 +28°C° 0 mm 2 mps 738 mmHg 63%
    23:00 +27°C° 0.5 mm 2 mps 738 mmHg 68%

    Tomorrow, 23 June, Saturday

    Time Temperature Precipitation Wind Pressure Humidity
    00:00 +26°C° 0.5 mm 2 mps 738 mmHg 74%
    01:00 +25°C° 0.5 mm 2 mps 738 mmHg 80%
    02:00 +25°C° 0.2 mm 2 mps 738 mmHg 82%
    03:00 +24°C° 0.2 mm 2 mps 738 mmHg 85%
    04:00 +24°C° 0.2 mm 2 mps 738 mmHg 87%
    05:00 +25°C° 0 mm 3 mps 739 mmHg 86%
    06:00 +25°C° 0 mm 3 mps 739 mmHg 84%
    07:00 +26°C° 0 mm 3 mps 739 mmHg 82%
    08:00 +27°C° 0 mm 4 mps 739 mmHg 72%
    09:00 +29°C° 0 mm 4 mps 740 mmHg 62%
    10:00 +32°C° 0 mm 5 mps 740 mmHg 53%
    11:00 +33°C° 0 mm 5 mps 740 mmHg 48%
    12:00 +35°C° 0 mm 5 mps 740 mmHg 43%
    13:00 +36°C° 0 mm 5 mps 740 mmHg 38%
    14:00 +36°C° 0 mm 5 mps 739 mmHg 39%
    15:00 +36°C° 0 mm 5 mps 739 mmHg 39%
    16:00 +36°C° 0 mm 5 mps 739 mmHg 40%
    17:00 +35°C° 0 mm 4 mps 739 mmHg 45%
    18:00 +34°C° 0 mm 3 mps 739 mmHg 50%
    19:00 +33°C° 0 mm 3 mps 739 mmHg 55%
    20:00 +31°C° 0 mm 3 mps 739 mmHg 57%
    21:00 +30°C° 0 mm 3 mps 740 mmHg 60%
    22:00 +29°C° 0 mm 3 mps 740 mmHg 62%
    23:00 +28°C° 0 mm 3 mps 740 mmHg 66%

    Day after tomorrow, 24 June, Sunday

    Time Temperature Precipitation Wind Pressure Humidity
    00:00 +28°C° 0 mm 3 mps 740 mmHg 69%
    01:00 +27°C° 0 mm 3 mps 740 mmHg 73%
    02:00 +26°C° 0 mm 2 mps 740 mmHg 75%
    03:00 +26°C° 0 mm 2 mps 740 mmHg 77%
    04:00 +25°C° 0 mm 2 mps 740 mmHg 80%
    05:00 +26°C° 0 mm 2 mps 741 mmHg 78%
    06:00 +26°C° 0 mm 1 mps 741 mmHg 76%
    07:00 +27°C° 0 mm 1 mps 742 mmHg 74%
    08:00 +29°C° 0 mm 2 mps 742 mmHg 66%
    09:00 +31°C° 0 mm 2 mps 742 mmHg 58%
    10:00 +35°C° 0 mm 3 mps 742 mmHg 50%
    11:00 +36°C° 0 mm 3 mps 742 mmHg 47%
    12:00 +37°C° 0 mm 3 mps 742 mmHg 43%
    13:00 +38°C° 0 mm 3 mps 742 mmHg 39%
    14:00 +38°C° 0 mm 3 mps 742 mmHg 39%
    15:00 +38°C° 0 mm 3 mps 742 mmHg 38%
    16:00 +39°C° 0 mm 3 mps 741 mmHg 37%
    17:00 +37°C° 0 mm 3 mps 741 mmHg 42%
    18:00 +36°C° 0 mm 3 mps 741 mmHg 47%
    19:00 +34°C° 0 mm 3 mps 741 mmHg 52%
    20:00 +33°C° 0 mm 3 mps 742 mmHg 54%
    21:00 +31°C° 0 mm 2 mps 742 mmHg 56%
    22:00 +30°C° 0 mm 2 mps 742 mmHg 58%
    23:00 +29°C° 0.1 mm 2 mps 742 mmHg 63%

    25 June, Monday

    Time Temperature Precipitation Wind Pressure Humidity
    00:00 +28°C° 0.1 mm 2 mps 742 mmHg 68%
    01:00 +27°C° 0.1 mm 2 mps 742 mmHg 73%
    02:00 +26°C° 0.1 mm 1 mps 742 mmHg 76%
    03:00 +26°C° 0.1 mm 1 mps 742 mmHg 78%
    04:00 +25°C° 0.1 mm 1 mps 742 mmHg 81%
    05:00 +26°C° 0.1 mm 1 mps 742 mmHg 79%
    06:00 +27°C° 0.1 mm 1 mps 743 mmHg 78%
    07:00 +28°C° 0.1 mm 2 mps 743 mmHg 76%
    08:00 +29°C° 0 mm 1 mps 743 mmHg 69%
    09:00 +31°C° 0 mm 1 mps 744 mmHg 63%
    10:00 +33°C° 0 mm 1 mps 744 mmHg 56%
    11:00 +34°C° 0 mm 1 mps 744 mmHg 51%
    12:00 +36°C° 0 mm 2 mps 743 mmHg 46%
    13:00 +37°C° 0 mm 2 mps 743 mmHg 41%
    14:00 +38°C° 0 mm 2 mps 743 mmHg 41%
    15:00 +38°C° 0 mm 2 mps 743 mmHg 42%
    16:00 +38°C° 0 mm 2 mps 742 mmHg 42%
    17:00 +35°C° 0 mm 1 mps 742 mmHg 46%
    18:00 +34°C° 0 mm 1 mps 743 mmHg 51%
    19:00 +33°C° 0 mm 1 mps 743 mmHg 55%
    20:00 +31°C° 1.4 mm 1 mps 743 mmHg 61%
    21:00 +30°C° 1.4 mm 1 mps 743 mmHg 67%
    22:00 +28°C° 1.4 mm 2 mps 743 mmHg 73%
    23:00 +27°C° 4.6 mm 2 mps 744 mmHg 78%

    26 June, Tuesday

    Time Temperature Precipitation Wind Pressure Humidity
    00:00 +26°C° 4.6 mm 3 mps 744 mmHg 83%
    01:00 +25°C° 4.6 mm 4 mps 744 mmHg 88%
    02:00 +25°C° 0.2 mm 3 mps 744 mmHg 90%
    03:00 +25°C° 0.2 mm 3 mps 744 mmHg 91%
    04:00 +24°C° 0.2 mm 3 mps 744 mmHg 93%
    05:00 +25°C° 0 mm 3 mps 745 mmHg 91%
    06:00 +25°C° 0 mm 3 mps 745 mmHg 89%
    07:00 +25°C° 0 mm 4 mps 746 mmHg 86%
    08:00 +26°C° 0 mm 4 mps 746 mmHg 78%
    09:00 +28°C° 0 mm 4 mps 747 mmHg 70%
    10:00 +29°C° 0 mm 4 mps 747 mmHg 62%
    11:00 +30°C° 0 mm 4 mps 747 mmHg 59%
    12:00 +32°C° 0 mm 4 mps 746 mmHg 55%
    13:00 +33°C° 0 mm 4 mps 746 mmHg 51%
    14:00 +33°C° 0.1 mm 4 mps 746 mmHg 51%
    15:00 +33°C° 0.1 mm 3 mps 746 mmHg 51%
    16:00 +33°C° 0.1 mm 3 mps 746 mmHg 51%
    17:00 +31°C° 0 mm 3 mps 746 mmHg 55%
    18:00 +30°C° 0 mm 3 mps 746 mmHg 59%
    19:00 +28°C° 0 mm 2 mps 746 mmHg 64%
    20:00 +27°C° 0 mm 2 mps 746 mmHg 64%
    21:00 +26°C° 0 mm 2 mps 746 mmHg 64%
    22:00 +25°C° 0 mm 2 mps 747 mmHg 64%
    23:00 +25°C° 0 mm 2 mps 746 mmHg 68%

    27 June, Wednesday

    Time Temperature Precipitation Wind Pressure Humidity
    00:00 +24°C° 0 mm 2 mps 746 mmHg 71%
    01:00 +24°C° 0 mm 2 mps 745 mmHg 75%
    02:00 +23°C° 0 mm 1 mps 746 mmHg 79%
    03:00 +23°C° 0 mm 1 mps 746 mmHg 84%
    04:00 +22°C° 0 mm 1 mps 746 mmHg 88%
    05:00 +23°C° 0 mm 1 mps 746 mmHg 86%
    06:00 +24°C° 0 mm 1 mps 747 mmHg 84%
    07:00 +24°C° 0 mm 1 mps 747 mmHg 82%
    08:00 +26°C° 0 mm 1 mps 747 mmHg 74%
    09:00 +28°C° 0 mm 1 mps 746 mmHg 66%
    10:00 +30°C° 0 mm 1 mps 746 mmHg 58%
    11:00 +31°C° 0 mm 2 mps 746 mmHg 54%
    12:00 +32°C° 0 mm 2 mps 745 mmHg 51%
    13:00 +34°C° 0 mm 2 mps 745 mmHg 47%
    14:00 +32°C° 0 mm 2 mps 744 mmHg 47%
    15:00 +32°C° 0 mm 2 mps 744 mmHg 47%
    16:00 +32°C° 0 mm 2 mps 744 mmHg 47%
    17:00 +31°C° 0 mm 2 mps 744 mmHg 52%
    18:00 +30°C° 0 mm 2 mps 744 mmHg 57%
    19:00 +29°C° 0 mm 2 mps 744 mmHg 61%
    20:00 +28°C° 0 mm 2 mps 744 mmHg 64%
    21:00 +26°C° 0 mm 2 mps 744 mmHg 67%
    22:00 +25°C° 0 mm 2 mps 744 mmHg 70%
    23:00 +25°C° 0 mm 2 mps 744 mmHg 75%
    Show more